Flag for U.S.A. Weather past 2 weeks in Little Rock, Arkansas, U.S.A.

Now
82 °F

Partly sunny.


Feels Like: 87 °F
Forecast: 70 / 87 °F
Wind: 7 mph from Southwest

Location: Adams Field

Current Time: Jul 5, 2015 at 12:32:10 PM

Latest Report: Jul 5, 2015 at 11:53 AM


Visibility: 10 mi

Pressure: 30.06 "Hg

Humidity: 72%

Dew point: 72 °F

Location of Little RockLocation

Historic Weather in Little Rock — Graph

°F

Little Rock temperature yesterday

Maximum temperature yesterday: 84 °F (at 4:53 PM)
Minimum temperature yesterday: 70 °F (at 1:53 AM)
Average temperature yesterday: 76 °F

Past Weeks' High & Low Weather Summary

 TemperatureHumidityPressure
High98 °F (Jun 24, 4:53 PM)94% (Jun 26, 8:01 PM)30.14 "Hg (Jun 26, 8:01 PM)
Low68 °F (Jun 28, 5:53 AM)34% (Jun 24, 4:53 PM)29.84 "Hg (Jun 26, 5:53 PM)
Average82 °F67%29.99 "Hg
* Reported Jun 20 10:53 AM — Jul 5 10:53 AM, Little Rock, Weather by CustomWeather, © 2015

Note: Actual official high and low records may vary slightly from our data, if they occured in-between our weather recording intervals... More about our weather records

Advertising

Little Rock weather history for previous 24 hours

 ConditionsComfort  
Time TempWeatherWind HumidityBarometerVisibility
10:53 AM
Sun, Jul 5
79 °FPartly sunny.7 mph74%30.06 "Hg10 mi
9:53 AM76 °FMostly cloudy.7 mph82%30.07 "Hg10 mi
8:53 AM76 °FPartly sunny.6 mph82%30.05 "Hg10 mi
7:53 AM73 °FPartly sunny.7 mph88%30.04 "Hg10 mi
6:53 AM72 °FFog.6 mph87%30.06 "Hg6 mi
6:00 AM72 °FFog.5 mph88%30.04 "Hg5 mi
4:53 AM72 °FLight rain. Mostly cloudy.6 mph91%30.03 "Hg7 mi
3:53 AM72 °FPassing clouds.3 mph87%30.02 "Hg7 mi
2:53 AM72 °FPassing clouds.5 mph87%30.03 "Hg7 mi
1:53 AM72 °FPassing clouds.3 mph87%30.02 "Hg7 mi
12:53 AM72 °FPassing clouds.3 mph91%30.02 "Hg7 mi
11:53 PM
Sat, Jul 4
73 °FPassing clouds.3 mph88%30.01 "Hg7 mi
10:53 PM75 °FPassing clouds.9 mph85%30.02 "Hg9 mi
9:53 PM75 °FPassing clouds.6 mph85%29.99 "Hg10 mi
8:53 PM77 °FBroken clouds.8 mph79%29.97 "Hg10 mi
7:53 PM79 °FBroken clouds.7 mph74%29.95 "Hg10 mi
6:53 PM82 °FScattered clouds.6 mph67%29.94 "Hg10 mi
5:53 PM83 °FScattered clouds.9 mph65%29.95 "Hg10 mi
4:53 PM84 °FScattered clouds.6 mph61%29.94 "Hg10 mi
3:53 PM83 °FPartly sunny.6 mph65%29.95 "Hg10 mi
2:53 PM83 °FScattered clouds.5 mph61%29.96 "Hg10 mi
1:53 PM82 °FScattered clouds.6 mph63%29.97 "Hg10 mi
12:53 PM79 °FBroken clouds.5 mph69%29.99 "Hg10 mi
Weather by CustomWeather, © 2015

See weather overviewHow to use our weather pages